[TLELIST] Archives

 

[TLELIST] Current TLEs

July 24th 2026 PDT

0 HST 1 20580U 90037B 26205.16944587 .00006660 00000-0 20754-3 0 9992 2 20580 28.4719 187.7352 0001886 189.8128 170.2431 15.31135105794240 0 ISS (ZARYA) 1 25544U 98067A 26205.15303990 .00012066 00000-0 22566-3 0 9994 2 25544 51.6315 117.1603 0006931 331.5533 28.5077 15.49135191577483 0 CXO 1 25867U 99040B 26206.40147406 .00000689 00000-0 00000-0 0 9995 2 25867 56.6765 115.6641 7773461 309.9148 0.5404 0.37796798 17465 ...Continue Reading

[TLELIST] Current TLEs

July 23rd 2026 PDT

0 HST 1 20580U 90037B 26204.25693192 .00005734 00000-0 17776-3 0 9995 2 20580 28.4721 193.9755 0001928 181.0239 179.0353 15.31122099794106 0 ISS (ZARYA) 1 25544U 98067A 26204.18538858 .00009623 00000-0 18183-3 0 9994 2 25544 51.6313 121.9488 0006906 328.2241 31.8329 15.49110422577337 0 CXO 1 25867U 99040B 26206.40147406 .00000689 00000-0 00000-0 0 9995 2 25867 56.6765 115.6641 7773461 309.9148 0.5404 0.37796798 17465 ...Continue Reading

[TLELIST] Current TLEs

July 22nd 2026 PDT

0 HST 1 20580U 90037B 26203.21405009 .00005689 00000-0 17638-3 0 9994 2 20580 28.4723 201.1073 0002036 171.5650 188.4980 15.31110914793949 0 ISS (ZARYA) 1 25544U 98067A 26203.15321183 .00008859 00000-0 16818-3 0 9994 2 25544 51.6313 127.0562 0006883 324.3803 35.6725 15.49090344577176 0 CXO 1 25867U 99040B 26206.40096615 .00000689 00000-0 00000-0 0 9990 2 25867 56.6765 115.6642 7773458 309.9148 0.4716 0.37796842 17467 ...Continue Reading

[TLELIST] Current TLEs

July 21st 2026 PDT

0 HST 1 20580U 90037B 26202.23634140 .00004226 00000-0 12921-3 0 9991 2 20580 28.4721 207.7932 0002090 161.9794 198.0877 15.31099653793796 0 ISS (ZARYA) 1 25544U 98067A 26202.18553447 .00005896 00000-0 11479-3 0 9992 2 25544 51.6316 131.8443 0006849 320.6461 39.4029 15.49071756577020 0 CXO 1 25867U 99040B 26203.75757577 .00000588 00000-0 00000-0 0 9994 2 25867 56.6521 115.7083 7776512 309.9609 0.5640 0.37802015 17459 ...Continue Reading

[TLELIST] Current TLEs

July 20th 2026 PDT

0 HST 1 20580U 90037B 26201.25862586 .00003225 00000-0 96917-4 0 9995 2 20580 28.4721 214.4792 0002120 152.4827 207.5881 15.31090554793647 0 ISS (ZARYA) 1 25544U 98067A 26201.08882182 .00004577 00000-0 91000-4 0 9995 2 25544 51.6315 137.2714 0006814 316.7062 43.3390 15.49056873576853 0 CXO 1 25867U 99040B 26203.75757577 .00000588 00000-0 00000-0 0 9994 2 25867 56.6521 115.7083 7776512 309.9609 0.5640 0.37802015 17459 ...Continue Reading

[TLELIST] Current TLEs

July 19th 2026 PDT

0 HST 1 20580U 90037B 26200.21572411 .00003033 00000-0 90734-4 0 9993 2 20580 28.4722 221.6112 0002142 143.1393 216.9350 15.31084186793484 0 ISS (ZARYA) 1 25544U 98067A 26200.18563955 .00004087 00000-0 82168-4 0 9990 2 25544 51.6318 141.7399 0006798 313.2287 46.8133 15.49047695576717 0 CXO 1 25867U 99040B 26201.11356867 .00000551 00000-0 00000+0 0 9998 2 25867 56.6395 115.7467 7780937 310.0076 0.5836 0.37806069 17440 ...Continue Reading

[TLELIST] Current TLEs

July 18th 2026 PDT

0 HST 1 20580U 90037B 26199.30318182 .00003106 00000-0 93086-4 0 9997 2 20580 28.4720 227.8514 0002184 134.1462 225.9314 15.31079190793343 0 ISS (ZARYA) 1 25544U 98067A 26199.08891132 .00003768 00000-0 76429-4 0 9995 2 25544 51.6318 147.1664 0006794 308.8910 51.1472 15.49037991576545 0 CXO 1 25867U 99040B 26201.11356867 .00000551 00000-0 00000+0 0 9998 2 25867 56.6395 115.7467 7780937 310.0076 0.5836 0.37806069 17440 ...Continue Reading

[TLELIST] Current TLEs

July 17th 2026 PDT

0 HST 1 20580U 90037B 26198.26027256 .00003243 00000-0 97529-4 0 9998 2 20580 28.4720 234.9835 0002187 123.3656 236.7149 15.31073496793187 0 ISS (ZARYA) 1 25544U 98067A 26198.25023249 .00003610 00000-0 73578-4 0 9997 2 25544 51.6315 151.3159 0006795 305.6667 54.3688 15.49030578576417 0 CXO 1 25867U 99040B 26201.11356867 .00000551 00000-0 00000-0 0 9999 2 25867 56.6395 115.7467 7780937 310.0076 0.5836 0.37806069 17440 ...Continue Reading

[TLELIST] Current TLEs

July 16th 2026 PDT

0 HST 1 20580U 90037B 26197.21735952 .00003185 00000-0 95693-4 0 9996 2 20580 28.4722 242.1156 0002182 113.0880 246.9946 15.31066695793020 0 ISS (ZARYA) 1 25544U 98067A 26197.21800738 .00003540 00000-0 72346-4 0 9992 2 25544 51.6313 156.4232 0006748 301.4056 58.6272 15.49021242576253 0 CXO 1 25867U 99040B 26198.46886808 .00000598 00000-0 00000+0 0 9995 2 25867 56.6226 115.7943 7787022 310.0504 0.5333 0.37805709 17431 ...Continue Reading

[TLELIST] Current TLEs

July 15th 2026 PDT

0 HST 1 20580U 90037B 26195.52261566 .00003452 00000-0 10435-3 0 9990 2 20580 28.4724 253.7048 0002196 97.3468 262.7378 15.31056678792766 0 ISS (ZARYA) 1 25544U 98067A 26196.12126347 .00002630 00000-0 55898-4 0 9990 2 25544 51.6305 161.8506 0007251 303.7745 56.2552 15.49005161576086 0 CXO 1 25867U 99040B 26198.46886808 .00000598 00000-0 00000+0 0 9995 2 25867 56.6226 115.7943 7787022 310.0504 0.5333 0.37805709 17431 ...Continue Reading
  • This mailing list is a public mailing list - anyone may join or leave, at any time.
  • This mailing list is announce-only.

International Space Station (ISS) / Hubble Space Telescope (HST) / Chandra X-Ray Observatory Orbital Data via EMAIL

Privacy Policy:

Private list